Palacios, TX

4:41 AM CDT on May 23, 2018 (GMT -0500)
Palacios Municipal

Weather History for KPSX - April, 2013

Change the Weather History Date:

Sunday, April 21, 2013

  Actual Average Record
Temperature  
Mean Temperature 66 °F -  
Max Temperature 77 °F 78 °F 85 °F (1967)
Min Temperature 54 °F 62 °F 47 °F (1953)
Growing Degree Days 16 (Base 50)    
Moisture  
Dew Point 55 °F    
Average Humidity 70    
Maximum Humidity 87    
Minimum Humidity 52    
Precipitation  
Precipitation 0.00 in - - ()
Sea Level Pressure  
Sea Level Pressure 30.09 in    
Wind  
Wind Speed 9 mph (East)    
Max Wind Speed 20 mph    
Max Gust Speed 25 mph    
Visibility 10 miles    
Events      
Averages and records for this station are not official NWS values.
T = Trace of Precipitation, MM = Missing Value Source: NWS Daily Summary

Daily Weather History Graph

Daily Weather History Graph

Search for Another Location

Airport or City:

Astronomy

Apr. 21, 2013 Rise Set
Actual Time 6:52 AM CDT 7:54 PM CDT
Civil Twilight 6:28 AM CDT 8:19 PM CDT
Nautical Twilight 5:59 AM CDT 8:48 PM CDT
Astronomical Twilight 5:29 AM CDT 9:18 PM CDT
Moon 4:00 PM CDT (4/21) 3:54 AM CDT (4/21)
Length of Visible Light 13h 50m
Length of Day
13h 01m
Waxing Gibbous, 80% of the Moon is Illuminated
Apr 21
Waxing Gibbous
Apr 25
Full
May 2
Last Quarter
May 9
New
May 17
First Quarter

Hourly Weather History & Observations

Time (CDT) Temp. Dew Point Humidity Pressure Visibility Wind Dir Wind Speed Gust Speed Precip Events Conditions
12:53 AM 55.9 °F 50.0 °F 80% 30.13 in 10.0 mi NNE 6.9 mph - N/A   Mostly Cloudy
1:53 AM 54.0 °F 48.9 °F 83% 30.10 in 10.0 mi NE 6.9 mph - N/A   Partly Cloudy
2:53 AM 54.0 °F 48.0 °F 80% 30.08 in 10.0 mi ENE 5.8 mph - N/A   Clear
3:53 AM 54.0 °F 48.9 °F 83% 30.06 in 10.0 mi NE 4.6 mph - N/A   Partly Cloudy
4:53 AM 54.0 °F 48.9 °F 83% 30.06 in 10.0 mi ENE 3.5 mph - N/A   Clear
5:53 AM 54.0 °F 48.9 °F 83% 30.07 in 10.0 mi NNE 6.9 mph - N/A   Clear
6:53 AM 54.0 °F 50.0 °F 86% 30.09 in 10.0 mi NNE 5.8 mph - N/A   Clear
7:53 AM 57.9 °F 54.0 °F 87% 30.12 in 10.0 mi NE 4.6 mph - N/A   Mostly Cloudy
8:53 AM 66.0 °F 57.0 °F 73% 30.12 in 10.0 mi NE 5.8 mph - N/A   Scattered Clouds
9:53 AM 72.0 °F 59.0 °F 64% 30.13 in 10.0 mi East 6.9 mph - N/A   Clear
10:53 AM 75.0 °F 57.9 °F 55% 30.14 in 10.0 mi ESE 12.7 mph - N/A   Partly Cloudy
11:53 AM 77.0 °F 57.9 °F 52% 30.13 in 10.0 mi ESE 10.4 mph 19.6 mph N/A   Partly Cloudy
12:53 PM 77.0 °F 57.9 °F 52% 30.11 in 10.0 mi ESE 11.5 mph - N/A   Partly Cloudy
1:53 PM 75.9 °F 59.0 °F 56% 30.10 in 10.0 mi ESE 12.7 mph - N/A   Mostly Cloudy
2:53 PM 75.0 °F 59.0 °F 57% 30.09 in 10.0 mi ESE 17.3 mph - N/A   Mostly Cloudy
3:53 PM 77.0 °F 59.0 °F 54% 30.06 in 10.0 mi ESE 18.4 mph 25.3 mph N/A   Clear
4:53 PM 75.0 °F 57.9 °F 55% 30.05 in 10.0 mi ESE 19.6 mph 24.2 mph N/A   Mostly Cloudy
5:53 PM 73.9 °F 57.9 °F 57% 30.05 in 10.0 mi ESE 15.0 mph - N/A   Partly Cloudy
6:53 PM 71.1 °F 57.9 °F 63% 30.06 in 10.0 mi ESE 17.3 mph - N/A   Clear
7:53 PM 69.1 °F 57.9 °F 68% 30.07 in 10.0 mi East 13.8 mph - N/A   Clear
8:53 PM 66.9 °F 59.0 °F 76% 30.09 in 10.0 mi East 10.4 mph - N/A   Clear
9:53 PM 64.9 °F 59.0 °F 81% 30.11 in 10.0 mi East 8.1 mph - N/A   Clear
10:53 PM 64.0 °F 57.9 °F 80% 30.11 in 10.0 mi ESE 8.1 mph - N/A   Clear
11:53 PM 64.0 °F 57.9 °F 80% 30.11 in 10.0 mi ESE 6.9 mph - N/A   Clear